Carbondale, IL

1:57 PM CST on November 13, 2019 (GMT -0600)
Southern Illinois

Weather History for KMDH - August, 2019

Change the Weather History Date:

Monday, August 12, 2019

  Actual Average Record
Temperature  
Mean Temperature 83 °F -  
Max Temperature 91 °F 85 °F 103 °F (1936)
Min Temperature 75 °F 61 °F 49 °F (1967)
Cooling Degree Days 18    
Growing Degree Days 33 (Base 50)    
Moisture  
Dew Point 75 °F    
Average Humidity 78    
Maximum Humidity 94    
Minimum Humidity 66    
Precipitation  
Precipitation 0.00 in - - ()
Sea Level Pressure  
Sea Level Pressure 29.87 in    
Wind  
Wind Speed 7 mph (South)    
Max Wind Speed 16 mph    
Max Gust Speed -    
Visibility 10 miles    
Events Rain    
Averages and records for this station are not official NWS values.
T = Trace of Precipitation, MM = Missing Value Source: NWS Daily Summary

Daily Weather History Graph

Daily Weather History Graph

Search for Another Location

Airport or City:

Astronomy

Aug. 12, 2019 Rise Set
Actual Time 6:09 AM CDT 7:53 PM CDT
Civil Twilight 5:41 AM CDT 8:21 PM CDT
Nautical Twilight 5:07 AM CDT 8:55 PM CDT
Astronomical Twilight 4:31 AM CDT 9:32 PM CDT
Moon 6:21 PM CDT (8/12) 3:21 AM CDT (8/12)
Length of Visible Light 14h 40m
Length of Day
13h 44m
Waxing Gibbous, 93% of the Moon is Illuminated
Aug 12
Waxing Gibbous
Aug 15
Full
Aug 23
Last Quarter
Aug 30
New
Sep 5
First Quarter

Hourly Weather History & Observations

Time (CDT) Temp. Heat Index Dew Point Humidity Pressure Visibility Wind Dir Wind Speed Gust Speed Precip Events Conditions
12:52 AM 77.0 °F - 73.9 °F 90% 29.94 in 8.0 mi SSE 5.8 mph - 0.00 in   Mostly Cloudy
1:52 AM 77.0 °F - 73.0 °F 88% 29.94 in 10.0 mi Calm Calm - N/A   Mostly Cloudy
2:52 AM 75.9 °F - 73.9 °F 94% 29.93 in 9.0 mi SSE 3.5 mph - N/A   Overcast
3:52 AM 75.9 °F - 72.0 °F 87% 29.89 in 9.0 mi SE 5.8 mph - 0.00 in Rain Light Rain
4:52 AM 75.0 °F - 73.0 °F 94% 29.90 in 8.0 mi SSE 5.8 mph - 0.00 in   Overcast
5:52 AM 75.9 °F - 73.0 °F 91% 29.90 in 9.0 mi South 4.6 mph - N/A   Mostly Cloudy
6:52 AM 75.9 °F - 72.0 °F 87% 29.91 in 8.0 mi South 6.9 mph - N/A   Overcast
7:52 AM 78.1 °F - 72.0 °F 81% 29.93 in 9.0 mi South 8.1 mph - N/A   Mostly Cloudy
8:52 AM 80.1 °F 83.8 °F 72.0 °F 76% 29.92 in 10.0 mi South 11.5 mph - N/A   Partly Cloudy
9:52 AM 82.0 °F 87.9 °F 73.9 °F 76% 29.94 in 10.0 mi SSW 9.2 mph - N/A   Scattered Clouds
10:52 AM 84.0 °F 92.6 °F 75.9 °F 76% 29.95 in 10.0 mi WSW 4.6 mph - N/A   Overcast
11:19 AM 80.1 °F 84.5 °F 73.9 °F 81% 29.96 in 9.0 mi ENE 5.8 mph - N/A   Overcast
11:52 AM 82.9 °F 90.2 °F 75.0 °F 77% 29.93 in 10.0 mi East 9.2 mph - N/A   Overcast
12:52 PM 87.1 °F 98.8 °F 77.0 °F 72% 29.88 in 10.0 mi ESE 9.2 mph - N/A   Clear
1:52 PM 90.0 °F 105.8 °F 79.0 °F 70% 29.86 in 10.0 mi South 11.5 mph - N/A   Clear
2:52 PM 91.9 °F 108.8 °F 79.0 °F 66% 29.83 in 10.0 mi SSW 16.1 mph - N/A   Clear
3:52 PM 91.0 °F 106.2 °F 78.1 °F 66% 29.82 in 10.0 mi SSW 16.1 mph - N/A   Clear
4:52 PM 91.0 °F 107.6 °F 79.0 °F 68% 29.81 in 10.0 mi SSW 13.8 mph - N/A   Clear
5:52 PM 91.0 °F 107.6 °F 79.0 °F 68% 29.80 in 10.0 mi SSW 12.7 mph - N/A   Clear
6:52 PM 90.0 °F 105.8 °F 79.0 °F 70% 29.81 in 10.0 mi SSW 9.2 mph - N/A   Clear
7:52 PM 84.9 °F 95.3 °F 77.0 °F 77% 29.81 in 10.0 mi South 6.9 mph - N/A   Clear
8:52 PM 84.0 °F 92.6 °F 75.9 °F 76% 29.81 in 10.0 mi South 6.9 mph - N/A   Clear
9:52 PM 84.0 °F 92.6 °F 75.9 °F 76% 29.79 in 10.0 mi SSW 11.5 mph - N/A   Clear
10:52 PM 82.9 °F 90.8 °F 75.9 °F 79% 29.79 in 10.0 mi SSW 10.4 mph - N/A   Clear
11:52 PM 84.0 °F 92.6 °F 75.9 °F 76% 29.80 in 10.0 mi SW 10.4 mph - N/A   Clear